Regional Weather Roundup
Issued by NWS

Home | Current Version | Previous Version | Text Only | Print | Product List | Glossary Off
Versions: 1 2 3 4 5 6 7 8 9 10 11 12 13 14 15 16 17 18 19 20 21 22 23 24 25 26 27 28 29 30 31 32 33 34 35 36 37 38 39 40 41 42 43 44 45 46 47 48 49 50

000
ASUS43 KFSD 222110
RWRSD

WEATHER ROUNDUP FOR SOUTH DAKOTA
NATIONAL WEATHER SERVICE SIOUX FALLS SD
300 PM CST MON DEC 22 2014

NOTE: "FAIR" INDICATES FEW OR NO CLOUDS BELOW 12,000 FEET WITH NO
SIGNIFICANT WEATHER AND/OR OBSTRUCTIONS TO VISIBILITY.


SDZ001>005-009-010-012>017-222200-
NORTHWEST AND NORTH CENTRAL SOUTH DAKOTA

CITY           SKY/WX    TMP DP  RH WIND       PRES   REMARKS
BUFFALO          N/A     28  24  85 NW26G37   29.51R WCI  13
FAITH            N/A     30  23  75 NW26G33   29.51R WCI  16
MOBRIDGE       LGT SNOW  31  29  92 N15G25    29.45R FOG     WCI  20
$$

SDZ012>016-024>037-041>051-057-063-072>074-222200-
SOUTHWEST AND SOUTH CENTRAL SOUTH DAKOTA

CITY           SKY/WX    TMP DP  RH WIND       PRES   REMARKS
RAPID CTY ARPT PTSUNNY   41  22  46 NW46G55   29.51R
PIERRE         CLOUDY    33  30  88 NW18G31   29.44S WCI  22
CUSTER         CLOUDY    31  16  54 NW17G33   29.51R WCI  19
ELLSWORTH AFB  PTSUNNY   40  24  52 N32G51    29.50R
PHILIP         FLURRIES  34  31  88 NW24G37   29.51R WCI  21
PINE RIDGE     CLOUDY    43  20  39 NW23G30   29.52S
SPEARFISH      MIX PCPN  36  23  60 NW24G33   29.60R
WINNER         LGT RAIN  36  33  89 NW14      29.46R
$$

SDZ004>011-016>023-039-040-222200-
NORTHEAST SOUTH DAKOTA

CITY           SKY/WX    TMP DP  RH WIND       PRES   REMARKS
ABERDEEN       LGT RAIN  37  36  96 N6        29.42R FOG
WATERTOWN      CLOUDY    37  35  92 S7        29.39R
SISSETON         N/A     37  37 100 SE15      29.43R
$$

SDZ017-020-022-023-036>040-048>070-222200-
SOUTHEAST SOUTH DAKOTA

CITY           SKY/WX    TMP DP  RH WIND       PRES   REMARKS
SIOUX FALLS    DRZL/FOG  40  39  97 CALM      29.40R VSB 3/4
HURON          CLOUDY    34  31  88 NW7       29.41R WCI  28
CHAMBERLAIN    CLOUDY    34  31  90 NW20G25   29.43S WCI  23
MITCHELL       CLOUDY    37  35  92 N5        29.42S
YANKTON        CLOUDY    37  36  93 NW9       29.43S
$$

ABBREVIATIONS USED IN REMARKS
   TC - TEMPERATURE IN CELSIUS
  WCI - WIND CHILL INDEX
   HX - HEAT INDEX
  VSB - VISIBILITY



USA.gov is the U.S. government's official web portal to all federal, state and local government web resources and services.